566  
ASUS41 KOKX 280208  
RWROKX  
 
REGIONAL WEATHER ROUNDUP  
NATIONAL WEATHER SERVICE NEW YORK NY  
1000 PM EDT THU APR 27 2017  
 
NOTE: "FAIR" INDICATES FEW OR NO CLOUDS BELOW 12,000 FEET WITH NO  
SIGNIFICANT WEATHER AND/OR S TO VISIBILITY
.  
 
NYZ071-072-176-178-NJZ106-104-280300-  
NEW YORK CITY METRO AREA  
 
CITY SKY/WX TMP DP RH WIND PRES REMARKS
 
CENTRAL PARK CLOUDY 57 57 100 VRB6 29.93R FOG  
WALL ST HELIPT CLOUDY 55 55 100 E6 29.91R  
BRONX BOT GARD N/A 57 57 100 SE5 29.91S  
LAGUARDIA APRT CLOUDY 59 57 93 S8 29.90R FOG  
KENNEDY INTL FOG 56 56 100 SE7 29.92R VSB 3/4  
BREEZY POINT N/A 50 N/A N/A E6 N/A  
NEWARK/LIBERTY DRZL/FOG 56 55 97 E5 29.90R VSB 1  
TETERBORO CLOUDY 60 59 96 SE7 29.89R FOG  

 
 
NYZ177-179-078>081-280300-  
LONG ISLAND NEW YORK  
 
CITY SKY/WX TMP DP RH WIND PRES REMARKS
 
JONES BEACH N/A 52 N/A N/A SE7 N/A  
MATINECOCK PT NOT AVBL  
FARMINGDALE CLOUDY 58 58 100 SE9 29.92R FOG  
MACARTHUR/ISP FOG 57 57 100 SE7 29.92S VSB 1/4  
SHIRLEY CLOUDY 57 56 96 VRB7 29.93S  
MT SINAI HARB N/A 57 N/A N/A S7 N/A  
WESTHAMPTON CLOUDY 57 54 89 VRB7 29.95S  
EAST HAMPTON CLOUDY 54 53 97 SE6 29.94S  
MONTAUK N/A 53 53 100 CALM 29.96S  

 
 
NYZ052-065-067-280300-  
HUDSON VALLEY  
 
CITY SKY/WX TMP DP RH WIND PRES REMARKS
 
WHITE PLAINS DRZL/FOG 58 57 97 E6 29.90S VSB 1/2  
LARCHMONT HARB N/A 55 N/A N/A E7 N/A  
CROTON O-T HUD N/A 59 N/A N/A SE1 N/A  
NEWBURGH N/A 61 59 94 SE12 29.91R FOG  
MONTGOMERY CLOUDY 62 58 86 S7 29.88R  
POUGHKEEPSIE CLOUDY 62 57 83 VRB5 29.89R  
ALBANY MOCLDY 66 57 72 S15G24 29.85R  

 
 
NJZ001-105-106-008-010-013-015-019>022-104-280300-  
NEW JERSEY  
 
CITY SKY/WX TMP DP RH WIND PRES REMARKS
 
NEWARK/LIBERTY DRZL/FOG 56 55 97 E5 29.90R VSB 1  
TETERBORO CLOUDY 60 59 96 SE7 29.89R FOG  
CALDWELL CLOUDY 59 58 96 SE3 29.90R FOG  
SOMERVILLE CLOUDY 62 59 90 E3 29.86R  
LINDEN CLOUDY 55 54 95 CALM 29.89S FOG  
PERTH AMBOY N/A 55 N/A N/A E7 N/A  
SUSSEX CLOUDY 62 59 90 CALM 29.88R  
ANDOVER N/A 61 58 90 CALM 29.87R  
TRENTON PTCLDY 61 59 93 E5 29.85R  
MILLVILLE PTCLDY 65 63 93 VRB6 29.85R  
ATLANTIC CITY PTCLDY 63 59 87 S15G25 29.87R  
WRIGHTSTOWN CLEAR 61 58 90 SE7 29.83S  
TOMS RIVER PTCLDY 59 58 96 S7 29.87S  
BELMAR PTCLDY 55 54 96 SE6 29.89R  

 
 
PAZ047>061-062-071-280300-  
EASTERN PENNSYLVANIA  
 
CITY SKY/WX TMP DP RH WIND PRES REMARKS
 
PHILADELPHIA MOCLDY 66 60 81 NE3 29.84R  
ALLENTOWN PTCLDY 69 61 75 E7 29.83R  
SCRANTON PTCLDY 70 62 76 SE8G21 29.80S  

 
 
CTZ002-004>006-009-010-012-RIZ004-006-007-MAZ004-011-015-280300-  
SOUTHERN NEW ENGLAND  
IN CT  
 
CITY SKY/WX TMP DP RH WIND PRES REMARKS
 
BRADLEY INTL CLOUDY 61 55 81 S10 29.92R  
HARTFORD CLOUDY 60 55 83 S7 29.93R  
DANBURY CLOUDY 57 57 100 SE5 29.93R FOG  
WTRBURY/OXFORD CLOUDY 57 54 88 S7 29.93F  
BRIDGEPORT CLOUDY 56 53 90 E7 29.92S FOG  
MERIDEN CLOUDY 59 56 89 SE7 29.93S FOG  
NEW HAVEN CLOUDY 55 53 93 E7 29.93S FOG  
CHESTER CLOUDY 57 57 100 SE3 29.94S FOG  
GROTON CLOUDY 54 52 93 CALM 29.95S  
WILIMANTIC CLOUDY 61 56 83 S5 29.95R  
 
IN RI  
 
CITY SKY/WX TMP DP RH WIND PRES REMARKS
 
PROVIDENCE CLOUDY 57 55 93 S7 29.96S  
BLOCK ISLAND CLOUDY 54 54 100 S3 29.96S  
WESTERLY CLOUDY 54 53 97 CALM 29.96S  
IN MA  
 
CITY SKY/WX TMP DP RH WIND PRES REMARKS
 
BOSTON CLOUDY 52 50 93 CALM 29.95R  
WORCESTER CLOUDY 59 54 83 S8 29.94S  
WESTFIELD CLOUDY 62 58 86 S10 29.91R  
PROVINCETOWN CLOUDY 53 51 93 S10 29.98R  
NANTUCKET CLOUDY 50 48 93 S7 29.98S FOG  

 
 
ANZ330-335-338-340-345-350-353-355-280300-  
COASTAL MARINE OBSERVATIONS  
 
 
STATION/POSITION TIME SKY/WX TEMP WIND PRES VSBY WAVE
 
AIR SEA DIR/SP/G HT/PER  
(UTC) (F) (DEG/KT/KT) (MB) (MI) (FT/S)  
NY HARB ENTRANCE 0050 52 50 150/ 12/ 14 1011.8 4/ 9  
20 S FIRE ISLAND 0050 53 49 130/ 12/ 12 1011.8 6/ 9  
GREAT SOUTH BAY 0115 55 57 100/ 10/ 12 N/A  
23 SSW MONTAUK P 0050 49 47 1013.9 6/10  
15 E BARNEGAT LI 0130 51 N/A 5/ 9  
HUDSON CANYON 0050 55 50 160/ 10/ 12 1013.0 6/ 9  
KINGS POINT 0124 57 50 200/ 9/ 10 1012.4  
EXECUTION ROCKS NOT AVBL  
CENTRAL LI SOUND 0115 50 110/ 8/ 10 N/A 0  
EASTERN LI SOUND NOT AVBL  
ROBBINS REEF 0124 55 130/ 9/ 10 1012.5  

 
 
>>>>>>>>>>>>>>>>>>>>>>>>>>>> KEY <<<<<<<<<<<<<<<<<<<<<<<<<<<  
> <  
> SKY/WX - SKY CONDITION/PRESENT WEATHER <  
> TMP - TEMPERATURE IN FAHRENHEIT <  
> DP - DEW POINT IN FAHRENHEIT <  
> RH - RELATIVE HUMIDITY IN PERCENT <  
> WIND - DIRECTION (FROM) AND SPEED IN MPH <  
> PRES - MEAN SEA LEVEL PRESSURE (INCHES OF HG) <  
> WCI - WIND CHILL INDEX <  
> VSB - VISIBILITY IN MILES <  
> HX - HEAT INDEX <  
> TC - TEMPERATURE IN CELSIUS <  
> VRB - VARIABLE WIND DIRECTION <  
> <  
>>>>>>>>>>>>>>>>>>>>>>>>>>>> KEY <<<<<<<<<<<<<<<<<<<<<<<<<<<  
 
 
CLICK HERE TO GO TO PREVIOUS BULLETINS.

The Nexlab NY Page
The Nexlab NJ Page
The Nexlab CT Page Main Text Page